Location: Newark
(32.9900°N, 111.5400°W)
Time: 12:34:05
(UTC+00:00)

Envisat - Pass Details

Date: 16 November 2019
Orbit: 764 x 766 km, 98.1° (Epoch: 16 December)

Event Time Altitude Azimuth Distance (km) Brightness Sun altitude
Rises 12:56:02 0° 38° (NE) 3,233 6.6 -13.1°
Reaches altitude 10° 12:59:44 10° 65° (ENE) 2,301 6.3 -12.3°
Maximum altitude 13:02:00 13° 92° (E) 2,095 6.6 -11.9°
Drops below altitude 10° 13:04:16 10° 119° (ESE) 2,294 6.9 -11.4°
Sets 13:07:55 0° 147° (SSE) 3,214 7.1 -10.7°
